EN

Hourly Weather Abbiategrasso

Today, 1 December, Tuesday

Time Temperature Precipitation Wind Pressure Humidity
00:00 +5°C° 0 mm 0 mps 755 mmHg 72%
01:00 +5°C° 0 mm 0 mps 754 mmHg 71%
02:00 +5°C° 0 mm 0 mps 754 mmHg 71%
03:00 +5°C° 0 mm 0 mps 754 mmHg 71%
04:00 +5°C° 0 mm 0 mps 753 mmHg 71%
05:00 +5°C° 0 mm 0 mps 753 mmHg 71%
06:00 +5°C° 0 mm 0 mps 753 mmHg 71%
07:00 +5°C° 0 mm 0 mps 752 mmHg 73%
08:00 +5°C° 0 mm 0 mps 752 mmHg 72%
09:00 +6°C° 0 mm 1 mps 751 mmHg 70%
10:00 +6°C° 0 mm 1 mps 751 mmHg 69%
11:00 +7°C° 0 mm 1 mps 750 mmHg 67%
12:00 +6°C° 0 mm 2 mps 750 mmHg 65%
13:00 +7°C° 0 mm 3 mps 749 mmHg 63%
14:00 +5°C° 0 mm 3 mps 749 mmHg 63%
15:00 +5°C° 0 mm 3 mps 749 mmHg 63%
16:00 +5°C° 0 mm 3 mps 748 mmHg 64%
17:00 +6°C° 0 mm 2 mps 749 mmHg 65%
18:00 +6°C° 0 mm 2 mps 749 mmHg 66%
19:00 +5°C° 0 mm 2 mps 749 mmHg 68%
20:00 +6°C° 0.1 mm 1 mps 749 mmHg 68%
21:00 +6°C° 0.1 mm 1 mps 749 mmHg 69%
22:00 +6°C° 0.1 mm 1 mps 749 mmHg 69%
23:00 +5°C° 0.6 mm 1 mps 749 mmHg 75%

Tomorrow, 2 December, Wednesday

Time Temperature Precipitation Wind Pressure Humidity
00:00 +3°C° 0.6 mm 2 mps 749 mmHg 81%
01:00 +3°C° 0.6 mm 2 mps 749 mmHg 87%
02:00 +3°C° 0.5 mm 2 mps 749 mmHg 89%
03:00 +3°C° 0.5 mm 2 mps 748 mmHg 90%
04:00 +4°C° 0.5 mm 1 mps 748 mmHg 92%
05:00 +4°C° 0.4 mm 1 mps 748 mmHg 92%
06:00 +4°C° 0.4 mm 1 mps 747 mmHg 92%
07:00 +4°C° 0.4 mm 1 mps 747 mmHg 92%
08:00 +4°C° 0.6 mm 1 mps 747 mmHg 91%
09:00 +4°C° 0.6 mm 1 mps 747 mmHg 90%
10:00 +5°C° 0.6 mm 1 mps 747 mmHg 90%
11:00 +5°C° 0.3 mm 1 mps 747 mmHg 88%
12:00 +5°C° 0.3 mm 1 mps 746 mmHg 87%
13:00 +6°C° 0.3 mm 1 mps 746 mmHg 86%
14:00 +6°C° 0.1 mm 1 mps 746 mmHg 85%
15:00 +6°C° 0.1 mm 1 mps 747 mmHg 85%
16:00 +5°C° 0.1 mm 0 mps 747 mmHg 85%
17:00 +6°C° 0.1 mm 1 mps 747 mmHg 85%
18:00 +6°C° 0.1 mm 1 mps 747 mmHg 86%
19:00 +6°C° 0.1 mm 1 mps 747 mmHg 87%
20:00 +6°C° 0 mm 1 mps 747 mmHg 85%
21:00 +6°C° 0 mm 1 mps 747 mmHg 84%
22:00 +6°C° 0 mm 1 mps 747 mmHg 83%
23:00 +5°C° 0 mm 2 mps 747 mmHg 84%

Day after tomorrow, 3 December, Thursday

Time Temperature Precipitation Wind Pressure Humidity
00:00 +4°C° 0 mm 2 mps 746 mmHg 85%
01:00 +4°C° 0 mm 2 mps 746 mmHg 86%
02:00 +4°C° 0 mm 2 mps 745 mmHg 87%
03:00 +3°C° 0 mm 2 mps 745 mmHg 88%
04:00 +3°C° 0 mm 2 mps 745 mmHg 89%
05:00 +4°C° 0 mm 1 mps 745 mmHg 88%
06:00 +4°C° 0 mm 1 mps 744 mmHg 88%
07:00 +4°C° 0 mm 1 mps 744 mmHg 87%
08:00 +4°C° 0 mm 1 mps 744 mmHg 84%
09:00 +5°C° 0 mm 1 mps 744 mmHg 80%
10:00 +5°C° 0 mm 0 mps 744 mmHg 76%
11:00 +6°C° 0 mm 1 mps 744 mmHg 73%
12:00 +7°C° 0 mm 1 mps 743 mmHg 70%
13:00 +8°C° 0 mm 1 mps 743 mmHg 68%
14:00 +8°C° 0 mm 1 mps 743 mmHg 70%
15:00 +7°C° 0 mm 1 mps 743 mmHg 73%
16:00 +7°C° 0 mm 1 mps 743 mmHg 75%
17:00 +6°C° 0 mm 1 mps 743 mmHg 80%
18:00 +6°C° 0 mm 1 mps 743 mmHg 84%
19:00 +4°C° 0 mm 2 mps 743 mmHg 89%
20:00 +4°C° 0 mm 2 mps 743 mmHg 89%
21:00 +4°C° 0 mm 2 mps 743 mmHg 89%
22:00 +4°C° 0 mm 2 mps 743 mmHg 89%
23:00 +4°C° 0.2 mm 2 mps 742 mmHg 91%

4 December, Friday

Time Temperature Precipitation Wind Pressure Humidity
00:00 +4°C° 0.2 mm 2 mps 742 mmHg 92%
01:00 +4°C° 0.2 mm 2 mps 741 mmHg 93%
02:00 +4°C° 1.1 mm 2 mps 741 mmHg 93%
03:00 +4°C° 1.1 mm 2 mps 740 mmHg 94%
04:00 +3°C° 1.1 mm 3 mps 740 mmHg 95%
05:00 +3°C° 1.7 mm 3 mps 739 mmHg 95%
06:00 +2°C° 1.7 mm 3 mps 739 mmHg 95%
07:00 +1°C° 1.7 mm 4 mps 738 mmHg 95%
08:00 +1°C° 2.2 mm 4 mps 738 mmHg 95%
09:00 +3°C° 2.2 mm 4 mps 737 mmHg 95%
10:00 +3°C° 2.2 mm 4 mps 737 mmHg 95%
11:00 +3°C° 2.5 mm 4 mps 736 mmHg 94%
12:00 +2°C° 2.5 mm 5 mps 735 mmHg 93%
13:00 +2°C° 2.5 mm 5 mps 735 mmHg 93%
14:00 +2°C° 2.3 mm 5 mps 734 mmHg 93%
15:00 +3°C° 2.3 mm 4 mps 734 mmHg 94%
16:00 +3°C° 2.3 mm 4 mps 734 mmHg 94%
17:00 +3°C° 0.2 mm 3 mps 734 mmHg 94%
18:00 +4°C° 0.2 mm 2 mps 734 mmHg 94%
19:00 +5°C° 0.2 mm 1 mps 734 mmHg 94%
20:00 +5°C° 0.4 mm 1 mps 733 mmHg 94%
21:00 +5°C° 0.4 mm 1 mps 733 mmHg 94%
22:00 +4°C° 0.4 mm 2 mps 733 mmHg 94%
23:00 +5°C° 0.1 mm 1 mps 733 mmHg 94%

5 December, Saturday

Time Temperature Precipitation Wind Pressure Humidity
00:00 +5°C° 0.1 mm 1 mps 733 mmHg 94%
01:00 +5°C° 0.1 mm 1 mps 733 mmHg 94%
02:00 +5°C° 0.2 mm 1 mps 733 mmHg 93%
03:00 +5°C° 0.2 mm 1 mps 732 mmHg 93%
04:00 +4°C° 0.2 mm 0 mps 732 mmHg 93%
05:00 +5°C° 4 mm 1 mps 732 mmHg 94%
06:00 +4°C° 4 mm 2 mps 731 mmHg 95%
07:00 +3°C° 4 mm 4 mps 731 mmHg 95%
08:00 +3°C° 1.8 mm 3 mps 731 mmHg 94%
09:00 +4°C° 1.8 mm 2 mps 732 mmHg 93%
10:00 +5°C° 1.8 mm 1 mps 732 mmHg 92%
11:00 +4°C° 0.2 mm 2 mps 732 mmHg 91%
12:00 +4°C° 0.2 mm 2 mps 732 mmHg 91%
13:00 +5°C° 0.2 mm 2 mps 733 mmHg 90%
14:00 +5°C° 0 mm 2 mps 733 mmHg 89%
15:00 +6°C° 0 mm 1 mps 733 mmHg 89%
16:00 +6°C° 0 mm 1 mps 734 mmHg 88%
17:00 +6°C° 0 mm 1 mps 734 mmHg 89%
18:00 +5°C° 0 mm 0 mps 735 mmHg 89%
19:00 +4°C° 0 mm 0 mps 735 mmHg 90%
20:00 +5°C° 0 mm 1 mps 736 mmHg 90%
21:00 +5°C° 0 mm 1 mps 736 mmHg 90%
22:00 +4°C° 0 mm 2 mps 737 mmHg 90%
23:00 +5°C° 0 mm 1 mps 737 mmHg 89%

6 December, Sunday

Time Temperature Precipitation Wind Pressure Humidity
00:00 +5°C° 0 mm 1 mps 737 mmHg 89%
01:00 +5°C° 0 mm 1 mps 737 mmHg 89%
02:00 +5°C° 0 mm 1 mps 737 mmHg 89%
03:00 +4°C° 0 mm 1 mps 737 mmHg 89%
04:00 +4°C° 0 mm 1 mps 738 mmHg 89%
05:00 +4°C° 0 mm 1 mps 738 mmHg 88%
06:00 +4°C° 0 mm 1 mps 738 mmHg 86%
07:00 +4°C° 0 mm 1 mps 739 mmHg 85%
08:00 +5°C° 0 mm 1 mps 739 mmHg 82%
09:00 +5°C° 0 mm 1 mps 739 mmHg 80%
10:00 +5°C° 0 mm 1 mps 739 mmHg 77%
11:00 +6°C° 0 mm 1 mps 739 mmHg 77%
12:00 +6°C° 0 mm 1 mps 739 mmHg 76%
13:00 +7°C° 0 mm 1 mps 739 mmHg 75%
14:00 +6°C° 0 mm 1 mps 740 mmHg 78%
15:00 +6°C° 0 mm 1 mps 740 mmHg 80%
16:00 +6°C° 0 mm 1 mps 740 mmHg 83%
17:00 +6°C° 0.2 mm 1 mps 741 mmHg 85%
18:00 +6°C° 0.2 mm 1 mps 741 mmHg 87%
19:00 +6°C° 0.2 mm 1 mps 742 mmHg 89%
20:00 +6°C° 0.2 mm 1 mps 742 mmHg 90%
21:00 +6°C° 0.2 mm 1 mps 742 mmHg 90%
22:00 +6°C° 0.2 mm 1 mps 743 mmHg 91%
23:00 +6°C° 0.1 mm 1 mps 743 mmHg 90%
Show more